Weather History for Newport News, VA

Change the Weather History Date:

Wednesday, August 27, 2014

  Actual Average Record
Temperature  
Mean Temperature 75 °F -  
Max Temperature 88 °F 87 °F 101 °F (1948)
Min Temperature 62 °F 69 °F 59 °F (1997)
Cooling Degree Days 10    
Growing Degree Days 25 (Base 50)    
Moisture  
Dew Point 62 °F    
Average Humidity 77    
Maximum Humidity 94    
Minimum Humidity 36    
Precipitation  
Precipitation 0.00 in - - ()
Sea Level Pressure  
Sea Level Pressure 30.03 in    
Wind  
Wind Speed 1 mph (NE)    
Max Wind Speed 9 mph    
Max Gust Speed -    
Visibility 6 miles    
Events      
Averages and records for this station are not official NWS values.
T = Trace of Precipitation, MM = Missing Value Source: NWS Daily Summary

Daily Weather History Graph

Daily Weather History Graph

Search for Another Location

Airport:

Trip Planner

Search our weather history database for the weather conditions in past years. The results will help you decide how hot, cold, wet, or windy it might be!

Date:

Astronomy

Aug. 27, 2014 Rise Set
Actual Time 6:32 AM EDT 7:41 PM EDT
Civil Twilight 6:05 AM EDT 8:08 PM EDT
Nautical Twilight 5:33 AM EDT 8:40 PM EDT
Astronomical Twilight 5:00 AM EDT 9:13 PM EDT
Moon 8:22 AM EDT (8/27) 8:37 PM EDT (8/27)
Length of Visible Light 14h 02m
Length of Day
13h 09m
Waxing Crescent, 4% of the Moon is Illuminated
Aug 27
Waxing Crescent
Sep 2
First Quarter
Sep 8
Full
Sep 15
Last Quarter
Sep 24
New

Hourly Weather History & Observations

Time (EDT) Temp. Heat Index Dew Point Humidity Pressure Visibility Wind Dir Wind Speed Gust Speed Precip Events Conditions
12:24 AM 66.0 °F - 61.0 °F 84% 30.08 in 1.0 mi Calm Calm - N/A   Haze
12:31 AM 64.9 °F - 61.0 °F 87% 30.08 in 0.8 mi Calm Calm - N/A   Mist
12:33 AM 64.9 °F - 61.0 °F 87% 30.08 in 1.2 mi Calm Calm - N/A   Partly Cloudy
12:36 AM 64.9 °F - 61.0 °F 87% 30.08 in 3.0 mi Calm Calm - N/A   Partly Cloudy
12:51 AM 64.4 °F - 60.8 °F 88% 30.07 in 1.5 mi Calm Calm - N/A   Partly Cloudy
12:54 AM 62.6 °F - 60.8 °F 94% 30.07 in 1.2 mi Calm Calm - N/A   Partly Cloudy
1:00 AM 64.0 °F - 60.1 °F 87% 30.07 in 0.8 mi Calm Calm - N/A   Mist
1:10 AM 64.0 °F - 60.1 °F 87% 30.07 in 1.2 mi Calm Calm - N/A   Partly Cloudy
1:12 AM 64.0 °F - 60.1 °F 87% 30.07 in 3.0 mi Calm Calm - N/A   Partly Cloudy
1:36 AM 63.0 °F - 60.1 °F 90% 30.07 in 1.5 mi Calm Calm - N/A   Scattered Clouds
1:39 AM 63.0 °F - 60.1 °F 90% 30.06 in 0.8 mi Calm Calm - N/A   Mist
1:47 AM 64.0 °F - 60.1 °F 87% 30.06 in 1.2 mi Calm Calm - N/A   Scattered Clouds
1:54 AM 64.9 °F - 61.0 °F 87% 30.05 in 10.0 mi Calm Calm - N/A   Scattered Clouds
2:29 AM 63.0 °F - 59.0 °F 87% 30.05 in 1.8 mi Calm Calm - N/A   Clear
2:42 AM 62.1 °F - 59.0 °F 90% 30.05 in 3.0 mi Calm Calm - N/A   Clear
2:54 AM 63.0 °F - 59.0 °F 87% 30.05 in 6.0 mi Calm Calm - N/A   Clear
3:26 AM 64.0 °F - 60.1 °F 87% 30.05 in 2.5 mi Calm Calm - N/A   Clear
3:51 AM 62.6 °F - 60.8 °F 94% 30.04 in 10.0 mi Calm Calm - N/A   Clear
3:54 AM 63.0 °F - 60.1 °F 90% 30.04 in 10.0 mi Calm Calm - N/A   Clear
4:29 AM 64.0 °F - 60.1 °F 87% 30.03 in 1.8 mi Calm Calm - N/A   Clear
4:32 AM 63.0 °F - 60.1 °F 90% 30.03 in 0.8 mi Calm Calm - N/A   Mist
4:54 AM 63.0 °F - 59.0 °F 87% 30.04 in 0.8 mi North 6.9 mph - N/A   Mist
4:56 AM 64.0 °F - 61.0 °F 90% 30.04 in 1.5 mi North 5.8 mph - N/A   Scattered Clouds
4:58 AM 64.0 °F - 62.1 °F 93% 30.04 in 3.0 mi North 4.6 mph - N/A   Scattered Clouds
5:54 AM 64.0 °F - 61.0 °F 90% 30.04 in 10.0 mi Calm Calm - N/A   Partly Cloudy
6:54 AM 66.0 °F - 63.0 °F 90% 30.06 in 10.0 mi NNW 5.8 mph - N/A   Clear
7:54 AM 72.0 °F - 66.9 °F 84% 30.06 in 10.0 mi North 4.6 mph - N/A   Clear
8:54 AM 77.0 °F - 69.1 °F 76% 30.06 in 10.0 mi NE 8.1 mph - N/A   Clear
9:54 AM 81.0 °F 83.8 °F 68.0 °F 65% 30.06 in 10.0 mi NNE 9.2 mph - N/A   Partly Cloudy
10:54 AM 82.4 °F 84.6 °F 66.2 °F 58% 30.06 in 10.0 mi ENE 9.2 mph - N/A   Scattered Clouds
11:54 AM 82.9 °F 85.4 °F 66.9 °F 58% 30.05 in 10.0 mi East 6.9 mph - N/A   Partly Cloudy
12:54 PM 84.9 °F 87.6 °F 66.9 °F 55% 30.03 in 10.0 mi ENE 6.9 mph - N/A   Clear
1:54 PM 84.9 °F 86.6 °F 64.9 °F 51% 30.01 in 10.0 mi ENE 8.1 mph - N/A   Clear
2:54 PM 88.0 °F 87.1 °F 59.0 °F 37% 29.98 in 10.0 mi NNE 6.9 mph - N/A   Clear
3:54 PM 88.0 °F 87.1 °F 59.0 °F 37% 29.97 in 10.0 mi NE 8.1 mph - N/A   Clear
4:54 PM 88.0 °F 86.9 °F 57.9 °F 36% 29.95 in 10.0 mi Calm Calm - N/A   Clear
5:54 PM 86.0 °F 85.4 °F 59.0 °F 40% 29.95 in 10.0 mi NE 4.6 mph - N/A   Clear
6:54 PM 82.9 °F 84.0 °F 63.0 °F 51% 29.95 in 10.0 mi East 5.8 mph - N/A   Clear
7:54 PM 73.9 °F - 64.0 °F 71% 29.93 in 10.0 mi Calm Calm - N/A   Clear
8:54 PM 71.1 °F - 63.0 °F 75% 29.93 in 10.0 mi Calm Calm - 0.00 in   Clear
9:54 PM 70.0 °F - 63.0 °F 78% 29.94 in 10.0 mi Calm Calm - N/A   Clear
10:54 PM 70.0 °F - 63.0 °F 78% 29.94 in 10.0 mi Calm Calm - N/A   Clear
11:54 PM 70.0 °F - 62.1 °F 76% 29.94 in 10.0 mi Calm Calm - N/A   Clear